�������l�o���
Date,Time,MP-1(��Sv/h),MP-2(��Sv/h),MP-3(��Sv/h),MP-4(��Sv/h),MP-5(��Sv/h),MP-6(��Sv/h),MP-7(��Sv/h),MP-8(��Sv/h),����,����(m/s),���J
2022/10/12,00:00,0.560,0.806,0.520,1.006,0.701,0.335,0.581,0.550,�k�k��,2.5,��
2022/10/12,00:10,0.560,0.805,0.519,1.008,0.704,0.334,0.582,0.550,�k�k��,2.5,��
2022/10/12,00:20,0.559,0.807,0.519,1.005,0.704,0.334,0.582,0.549,�k�k��,1.7,��
2022/10/12,00:30,0.560,0.805,0.520,1.005,0.700,0.333,0.580,0.550,�k��,1.5,��
2022/10/12,00:40,0.560,0.805,0.519,1.005,0.704,0.334,0.580,0.550,�k��,1.7,��
2022/10/12,00:50,0.561,0.806,0.520,1.005,0.703,0.333,0.582,0.549,�k��,1.5,��
2022/10/12,01:00,0.560,0.808,0.520,1.006,0.703,0.334,0.581,0.549,�k��,2.2,��
2022/10/12,01:10,0.559,0.807,0.520,1.006,0.703,0.334,0.580,0.550,�k��,2.6,��
2022/10/12,01:20,0.561,0.806,0.518,1.005,0.703,0.333,0.582,0.547,�k��,2.8,��
2022/10/12,01:30,0.562,0.807,0.517,1.007,0.703,0.334,0.580,0.549,���k��,2.5,��
2022/10/12,01:40,0.559,0.807,0.519,1.006,0.703,0.333,0.579,0.550,���k��,2.6,��
2022/10/12,01:50,0.561,0.804,0.520,1.006,0.703,0.332,0.580,0.549,���k��,2.6,��
2022/10/12,02:00,0.561,0.805,0.518,1.006,0.702,0.333,0.580,0.548,���k��,3.8,��
2022/10/12,02:10,0.558,0.803,0.519,1.008,0.703,0.334,0.579,0.550,���k��,4.0,��
2022/10/12,02:20,0.560,0.803,0.519,1.006,0.703,0.333,0.580,0.549,���k��,4.0,��
2022/10/12,02:30,0.559,0.806,0.519,1.006,0.704,0.334,0.578,0.548,�k��,4.8,��
2022/10/12,02:40,0.559,0.806,0.519,1.010,0.703,0.333,0.581,0.549,�k��,4.7,��
2022/10/12,02:50,0.559,0.806,0.520,1.007,0.704,0.334,0.579,0.548,�k��,4.6,��
2022/10/12,03:00,0.560,0.806,0.519,1.007,0.704,0.334,0.580,0.548,�k��,4.1,��
2022/10/12,03:10,0.561,0.805,0.519,1.007,0.701,0.333,0.579,0.549,�k��,3.4,��
2022/10/12,03:20,0.559,0.808,0.520,1.006,0.703,0.334,0.581,0.551,���k��,3.6,��
2022/10/12,03:30,0.560,0.807,0.522,1.007,0.702,0.334,0.580,0.549,�k��,2.6,��
2022/10/12,03:40,0.560,0.808,0.518,1.008,0.703,0.334,0.580,0.550,�k��,2.6,��
2022/10/12,03:50,0.560,0.806,0.518,1.008,0.703,0.332,0.580,0.549,�k��,1.7,��
2022/10/12,04:00,0.560,0.806,0.519,1.005,0.702,0.333,0.580,0.548,�k��,1.9,��
2022/10/12,04:10,0.561,0.806,0.518,1.007,0.705,0.335,0.579,0.548,�k��,3.0,��
2022/10/12,04:20,0.559,0.805,0.518,1.006,0.702,0.333,0.581,0.548,�k��,4.0,��
2022/10/12,04:30,0.561,0.805,0.518,1.009,0.702,0.332,0.579,0.549,�k��,4.1,��
2022/10/12,04:40,0.559,0.806,0.521,1.006,0.703,0.334,0.580,0.550,�k��,3.8,��
2022/10/12,04:50,0.559,0.806,0.518,1.008,0.703,0.334,0.579,0.550,�k�k��,4.0,��
2022/10/12,05:00,0.560,0.805,0.519,1.008,0.703,0.333,0.582,0.549,�k�k��,3.8,��
2022/10/12,05:10,0.560,0.805,0.519,1.005,0.702,0.334,0.580,0.549,�k�k��,3.4,��
2022/10/12,05:20,0.561,0.807,0.520,1.007,0.702,0.334,0.580,0.550,�k�k��,3.2,��
2022/10/12,05:30,0.560,0.805,0.519,1.006,0.702,0.332,0.581,0.549,�k�k��,3.2,��
2022/10/12,05:40,0.561,0.807,0.518,1.006,0.702,0.334,0.579,0.549,�k�k��,2.6,��
2022/10/12,05:50,0.559,0.805,0.519,1.005,0.702,0.333,0.581,0.549,�k�k��,1.7,��
2022/10/12,06:00,0.559,0.806,0.520,1.004,0.702,0.335,0.580,0.548,�k�k��,4.2,��
2022/10/12,06:10,0.559,0.805,0.520,1.007,0.703,0.334,0.581,0.549,�k�k��,5.4,��
2022/10/12,06:20,0.559,0.806,0.520,1.008,0.705,0.333,0.581,0.550,�k��,5.0,��
2022/10/12,06:30,0.559,0.806,0.520,1.007,0.703,0.332,0.580,0.550,�k��,3.6,��
2022/10/12,06:40,0.561,0.806,0.519,1.004,0.703,0.334,0.579,0.547,�k��,2.9,��
2022/10/12,06:50,0.561,0.807,0.521,1.006,0.703,0.334,0.580,0.550,�k��,2.3,��
2022/10/12,07:00,0.560,0.807,0.519,1.006,0.704,0.333,0.581,0.549,�k��,2.0,��
2022/10/12,07:10,0.559,0.807,0.521,1.006,0.703,0.334,0.581,0.548,�k��,3.4,��
2022/10/12,07:20,0.559,0.806,0.520,1.006,0.704,0.334,0.582,0.550,�k��,3.4,��
2022/10/12,07:30,0.561,0.803,0.521,1.007,0.704,0.334,0.580,0.548,�k��,3.9,��
2022/10/12,07:40,0.561,0.805,0.520,1.005,0.704,0.333,0.580,0.550,�k��,3.8,��
2022/10/12,07:50,0.560,0.803,0.519,1.007,0.704,0.332,0.579,0.548,�k��,3.2,��
2022/10/12,08:00,0.558,0.805,0.520,1.006,0.704,0.331,0.580,0.548,�k��,3.7,��
2022/10/12,08:10,0.561,0.804,0.519,1.007,0.705,0.333,0.580,0.549,�k��,3.8,��
2022/10/12,08:20,0.561,0.806,0.520,1.007,0.704,0.332,0.581,0.548,�k��,3.6,��
2022/10/12,08:30,0.560,0.805,0.519,1.008,0.704,0.331,0.580,0.550,�k��,3.8,��
2022/10/12,08:40,0.559,0.805,0.521,1.007,0.704,0.332,0.579,0.550,�k��,3.2,��
2022/10/12,08:50,0.559,0.804,0.521,1.006,0.705,0.332,0.579,0.550,�k��,3.7,��
2022/10/12,09:00,0.560,0.804,0.520,1.009,0.704,0.331,0.580,0.549,�k�k��,4.0,��
2022/10/12,09:10,0.561,0.804,0.520,1.006,0.703,0.331,0.580,0.550,�k�k��,4.4,��
2022/10/12,09:20,0.562,0.802,0.519,1.007,0.704,0.332,0.579,0.549,�k�k��,3.7,��
2022/10/12,09:30,0.561,0.805,0.523,1.006,0.706,0.332,0.579,0.550,�k�k��,3.8,��
2022/10/12,09:40,0.561,0.804,0.521,1.007,0.703,0.331,0.579,0.549,�k�k��,4.3,��
2022/10/12,09:50,0.561,0.801,0.520,1.007,0.704,0.332,0.579,0.550,�k��,5.9,��
2022/10/12,10:00,0.560,0.804,0.520,1.007,0.704,0.332,0.580,0.549,�k��,3.7,��
2022/10/12,10:10,0.561,0.802,0.520,1.007,0.705,0.333,0.580,0.551,�k�k��,3.1,��
2022/10/12,10:20,0.559,0.799,0.521,1.010,0.703,0.333,0.580,0.549,�k�k��,4.0,��
2022/10/12,10:30,0.560,0.798,0.520,1.007,0.706,0.333,0.579,0.549,�k�k��,4.4,��
2022/10/12,10:40,0.560,0.804,0.520,1.008,0.704,0.333,0.580,0.549,�k,4.1,��
2022/10/12,10:50,0.561,0.806,0.520,1.010,0.703,0.333,0.580,0.550,�k,3.3,��
2022/10/12,11:00,0.562,0.805,0.520,1.010,0.706,0.331,0.581,0.548,�k,3.2,��
2022/10/12,11:10,0.559,0.804,0.519,1.007,0.703,0.333,0.579,0.549,�k�k��,3.1,��
2022/10/12,11:20,0.559,0.805,0.520,1.008,0.705,0.333,0.580,0.548,�k,3.1,��
2022/10/12,11:30,0.559,0.804,0.521,1.008,0.705,0.332,0.579,0.549,�k�k��,3.7,��
2022/10/12,11:40,0.559,0.805,0.520,1.010,0.703,0.333,0.580,0.548,�k�k��,4.2,��
2022/10/12,11:50,0.559,0.804,0.520,1.009,0.703,0.332,0.580,0.549,�k�k��,4.3,��
2022/10/12,12:00,0.558,0.805,0.520,1.009,0.703,0.333,0.580,0.548,�k,4.7,��
2022/10/12,12:10,0.559,0.806,0.519,1.009,0.703,0.331,0.580,0.547,�k,4.6,��
2022/10/12,12:20,0.558,0.807,0.517,1.008,0.703,0.331,0.579,0.547,�k�k��,4.6,��
2022/10/12,12:30,0.560,0.806,0.520,1.009,0.703,0.333,0.580,0.547,�k,5.7,��
2022/10/12,12:40,0.559,0.808,0.520,1.007,0.703,0.333,0.579,0.548,�k�k��,5.3,��
2022/10/12,12:50,0.559,0.804,0.519,1.010,0.704,0.332,0.579,0.548,�k�k��,5.4,��
2022/10/12,13:00,0.558,0.804,0.519,1.009,0.704,0.331,0.580,0.547,�k�k��,5.1,��
2022/10/12,13:10,0.559,0.804,0.519,1.008,0.705,0.331,0.581,0.548,�k�k��,5.5,��
2022/10/12,13:20,0.560,0.803,0.518,1.007,0.704,0.333,0.580,0.547,�k�k��,5.4,��
2022/10/12,13:30,0.559,0.803,0.518,1.009,0.703,0.331,0.580,0.549,�k�k��,5.1,��
2022/10/12,13:40,0.559,0.804,0.518,1.009,0.703,0.332,0.580,0.548,�k�k��,5.0,��
2022/10/12,13:50,0.559,0.805,0.518,1.010,0.703,0.332,0.580,0.547,�k�k��,4.8,��
2022/10/12,14:00,0.558,0.805,0.520,1.009,0.705,0.332,0.579,0.548,�k�k��,4.5,��
2022/10/12,14:10,0.560,0.804,0.519,1.009,0.704,0.334,0.579,0.547,�k��,4.2,��
2022/10/12,14:20,0.558,0.805,0.519,1.008,0.704,0.331,0.580,0.549,�k�k��,3.9,��
2022/10/12,14:30,0.559,0.803,0.519,1.011,0.704,0.333,0.579,0.549,�k�k��,4.1,��
2022/10/12,14:40,0.560,0.804,0.519,1.008,0.704,0.332,0.579,0.549,�k�k��,3.2,��
2022/10/12,14:50,0.559,0.807,0.518,1.011,0.704,0.332,0.579,0.548,�k��,2.6,��
2022/10/12,15:00,0.560,0.806,0.520,1.009,0.704,0.334,0.579,0.547,�k�k��,3.0,��
2022/10/12,15:10,0.562,0.805,0.519,1.010,0.704,0.332,0.578,0.548,�k�k��,2.5,��
2022/10/12,15:20,0.559,0.806,0.519,1.010,0.704,0.333,0.579,0.547,�k�k��,2.6,��
2022/10/12,15:30,0.560,0.806,0.520,1.007,0.703,0.331,0.579,0.548,�k�k��,1.9,��
2022/10/12,15:40,0.560,0.807,0.520,1.010,0.705,0.331,0.579,0.549,�k�k��,2.0,��
2022/10/12,15:50,0.561,0.809,0.521,1.010,0.706,0.332,0.578,0.549,�k�k��,2.2,��
2022/10/12,16:00,0.560,0.810,0.521,1.009,0.706,0.333,0.579,0.547,�k,2.3,��
2022/10/12,16:10,0.560,0.810,0.522,1.010,0.707,0.333,0.578,0.549,�k�k��,2.3,��
2022/10/12,16:20,0.560,0.810,0.522,1.011,0.706,0.334,0.580,0.549,�k�k��,2.3,��
2022/10/12,16:30,0.560,0.812,0.521,1.010,0.707,0.334,0.577,0.551,�k��,2.6,��
2022/10/12,16:40,0.562,0.810,0.521,1.010,0.707,0.333,0.579,0.550,�k�k��,2.8,��
2022/10/12,16:50,0.562,0.810,0.520,1.009,0.707,0.334,0.579,0.549,�k�k��,2.6,��
2022/10/12,17:00,0.561,0.810,0.520,1.009,0.707,0.334,0.579,0.551,�k�k��,2.0,��
2022/10/12,17:10,0.562,0.809,0.519,1.009,0.706,0.334,0.580,0.550,�k��,1.1,��
2022/10/12,17:20,0.561,0.810,0.520,1.010,0.707,0.334,0.580,0.548,�k�k��,1.4,��
2022/10/12,17:30,0.563,0.812,0.521,1.009,0.707,0.334,0.580,0.549,�k,0.9,��
2022/10/12,17:40,0.562,0.811,0.520,1.012,0.707,0.334,0.579,0.550,-,CALM,��
2022/10/12,17:50,0.563,0.811,0.521,1.009,0.706,0.334,0.581,0.550,�k�k��,1.4,��
2022/10/12,18:00,0.562,0.810,0.520,1.009,0.709,0.334,0.581,0.550,�k,1.5,��
2022/10/12,18:10,0.562,0.810,0.520,1.012,0.707,0.335,0.580,0.550,�k�k��,1.2,��
2022/10/12,18:20,0.562,0.810,0.520,1.008,0.707,0.334,0.581,0.550,�k��,1.2,��
2022/10/12,18:30,0.562,0.812,0.521,1.010,0.707,0.334,0.582,0.550,�k��,1.1,��
2022/10/12,18:40,0.562,0.811,0.519,1.008,0.706,0.334,0.582,0.550,�k��,1.4,��
2022/10/12,18:50,0.561,0.811,0.521,1.010,0.707,0.334,0.581,0.550,��,0.6,��
2022/10/12,19:00,0.562,0.810,0.520,1.011,0.708,0.334,0.581,0.550,���k��,0.9,��
2022/10/12,19:10,0.560,0.811,0.522,1.011,0.708,0.333,0.582,0.549,�k��,0.6,��
2022/10/12,19:20,0.560,0.809,0.520,1.012,0.707,0.333,0.580,0.550,�k��,1.2,��
2022/10/12,19:30,0.563,0.809,0.520,1.010,0.705,0.333,0.581,0.549,���k��,1.4,��
2022/10/12,19:40,0.562,0.810,0.520,1.009,0.708,0.333,0.580,0.549,�k��,0.9,��
2022/10/12,19:50,0.561,0.811,0.519,1.011,0.708,0.334,0.581,0.550,�k��,1.7,��
2022/10/12,20:00,0.562,0.810,0.520,1.010,0.705,0.333,0.582,0.550,�k��,2.5,��
2022/10/12,20:10,0.562,0.809,0.520,1.011,0.707,0.332,0.582,0.550,�k��,1.7,��
2022/10/12,20:20,0.561,0.812,0.520,1.010,0.709,0.333,0.581,0.550,�k��,1.4,��
2022/10/12,20:30,0.562,0.810,0.521,1.012,0.706,0.333,0.581,0.549,�k��,2.0,��
2022/10/12,20:40,0.562,0.811,0.520,1.010,0.708,0.334,0.580,0.549,�k��,3.1,��
2022/10/12,20:50,0.561,0.809,0.520,1.009,0.708,0.332,0.581,0.550,�k��,2.9,��
2022/10/12,21:00,0.559,0.812,0.521,1.012,0.709,0.333,0.581,0.550,�k��,3.5,��
2022/10/12,21:10,0.562,0.811,0.520,1.012,0.707,0.332,0.581,0.549,�k��,3.3,��
2022/10/12,21:20,0.559,0.810,0.521,1.011,0.707,0.331,0.580,0.551,�k�k��,3.9,��
2022/10/12,21:30,0.563,0.812,0.520,1.011,0.707,0.333,0.581,0.550,�k�k��,4.0,��
2022/10/12,21:40,0.560,0.809,0.521,1.011,0.709,0.333,0.581,0.549,�k�k��,4.9,��
2022/10/12,21:50,0.562,0.810,0.521,1.011,0.707,0.334,0.581,0.550,�k�k��,3.9,��
2022/10/12,22:00,0.561,0.811,0.521,1.011,0.707,0.332,0.581,0.550,�k�k��,4.5,��
2022/10/12,22:10,0.561,0.811,0.521,1.012,0.707,0.332,0.583,0.551,�k�k��,4.7,��
2022/10/12,22:20,0.562,0.808,0.520,1.012,0.707,0.333,0.581,0.550,�k�k��,4.9,��
2022/10/12,22:30,0.561,0.812,0.519,1.012,0.708,0.334,0.583,0.550,�k�k��,5.7,��
2022/10/12,22:40,0.562,0.811,0.520,1.011,0.709,0.333,0.580,0.550,�k�k��,5.2,��
2022/10/12,22:50,0.561,0.811,0.520,1.011,0.708,0.333,0.583,0.550,�k�k��,5.5,��
2022/10/12,23:00,0.561,0.808,0.520,1.011,0.708,0.335,0.581,0.551,�k�k��,6.0,��
2022/10/12,23:10,0.560,0.811,0.520,1.011,0.708,0.333,0.581,0.550,�k�k��,6.4,��
2022/10/12,23:20,0.559,0.810,0.521,1.011,0.708,0.333,0.582,0.551,�k�k��,5.9,��
2022/10/12,23:30,0.560,0.809,0.522,1.011,0.710,0.334,0.582,0.550,�k�k��,5.7,��
2022/10/12,23:40,0.561,0.809,0.520,1.011,0.707,0.334,0.582,0.550,�k�k��,5.8,��
2022/10/12,23:50,0.560,0.809,0.520,1.011,0.706,0.334,0.581,0.551,�k�k��,6.5,��
